PSAT2 (NO-104) (44354 NORAD) Tracking and Keplerian Element Data

This shows tracking and keplerian element data for the satellite.

Feedback or suggestion? Click here.




ElementValue
Catalog44354
NamePSAT2 (NO-104)
Epoch Orbit1749
Epoch Day292.92685014
Epoch Year2019
RAAN161.3894
Inclination28.533
Eccentricity0.0382289
Argument of Perigee260.3698
Mean Anonmoly95.3511
Mean Motion14.98868239
Decay Rate6.834E-05
L11 44354U 19036R 19292.92685014 .00006834 00000-0 10141-3 0 9998
L22 44354 28.5330 161.3894 0382289 260.3698 95.3511 14.98868239 17494

Live tracking and technical data element details for PSAT2 (NO-104) (NORAD 44354). PSAT2 (NO-104) can be tracked NOW for your location showing map with azimuth and elevation plus other details from your city location.

Track the satellite on the map from your city or location and see movement details for azimuth, elevation, latitude, longitude, range, height, and movement on the map or in text.







IsCatalogInMostPopularTable: catalog: 44354, numindb: 25
Update: records affected: 1



GetName: 44354 PSAT2 (NO-104)

Hit Count: updated at: Wed, 23 Oct 2019 00:11:24 GMT